Погода в Проточном

Россия / Астраханская область     45°53′28″N   47°17′57″E
темп.,
°C
ветер,
м/с
пор.,
м/с
влажн.,
%
обл.,
%
осадки,
мм/ч
давл.,
гПа
погр.,
м
28 сентября, вт
вт2801:00+13зсз69695 0.0 1015413
04:00+11з48765 0.0 1016214
07:00+11зсз36855 0.0 1016160
10:00+14сз456942 0.0 1017753
13:00+17сз455376 0.4 10171485
16:00+17ссз5546100 0.5 10181895
19:00+15с675698 0.0 1020703
22:00+13с476722 0.0 1021265
29 сентября, ср
ср2901:00+14с4656100 0.0 1022486
04:00+12ссв46515 0.0 1022187
07:00+11ссв465613 0.0 1023164
10:00+12ссв554664 0.0 1024940
13:00+13ссв554555 0.0 10251118
16:00+14ссв45385 0.0 10241615
19:00+13ссв563979 0.0 1025445
22:00+12ссв564096 0.0 1026473
30 сентября, чт
чт3001:00+12ссв453999 0.0 1026541
04:00+10ссв47445 0.0 1027150
07:00+8ссв45530 0.0 1028110
10:00+12св44414 0.0 10291408
13:00+14св44345 0.0 10291868
16:00+14св34305 0.0 10281856
19:00+13ссв46344 0.0 1029241
22:00+11св47475 0.0 1030207
1 октября, пт
пт101:00+10в34570 0.0 103077
04:00+9всв35550 0.0 103082
07:00+8всв47490 0.0 1031155
10:00+12всв67350 0.0 1032691
13:00+15всв56270 0.0 10311874
16:00+16в56284 0.0 10302159
19:00+13юв68420 0.0 1031415
22:00+11вюв485236 0.0 1032249
2 октября, сб
сб201:00+10в475995 0.0 1032155
04:00+9всв475789 0.0 1032147
07:00+9всв5856100 0.0 1032175
10:00+12всв6845100 0.0 1032444
13:00+16вюв673597 0.0 10311917
16:00+16вюв66346 0.0 10301966
19:00+13вюв684842 0.0 1031528
22:00+11в48590 0.0 1031253